GPS BIIR-5 (PRN 22)

Last updated on Mon Oct 27 2025 00:03:23 GMT+0000 (Coordinated Universal Time)

1 26407U 00040A 25298.97358391 .00000009 00000+0 00000+0 0 9991 2 26407 54.9045 224.4672 0128693 300.8435 66.3121 2.00567366185252
UTC large
Height (km)
Speed (km/s)
/
Latitude / Longitude
Inclination (degrees)
Orbital Period (minutes)
Azimuth
Elevation
Range (km)
Doppler Factor

Next 0 passes for location: London (51.5072 / 0.1276)

Sorry there are no passes over London.